Location: Houston
(29.7631°N, 95.3631°W)
Time: 07:32:34
(UTC-05:00)

PRISM - Visible Passes

Search period start: 21 September 2021 00:00
Search period end: 01 October 2021 00:00
Orbit: 564 x 583 km, 98.2° (Epoch: 20 September)

Date Brightness Start Highest point End Pass type
(mag) Time Alt. Az. Time Alt. Az. Time Alt. Az.
21 Sep ? 05:07:56 10° N 05:09:59 29° N 05:09:59 29° N visible
22 Sep ? 05:10:51 10° N 05:12:51 27° N 05:12:51 27° N visible
23 Sep ? 05:13:46 10° N 05:15:42 26° N 05:15:42 26° N visible
24 Sep ? 05:16:41 10° N 05:18:33 25° N 05:18:33 25° N visible
25 Sep ? 05:19:36 10° N 05:21:23 24° N 05:21:23 24° N visible
26 Sep ? 05:22:32 10° N 05:24:14 23° NNW 05:24:14 23° NNW visible
27 Sep ? 05:25:27 10° N 05:27:04 22° NNW 05:27:04 22° NNW visible
28 Sep ? 05:28:23 10° N 05:29:54 20° NNW 05:29:54 20° NNW visible
29 Sep ? 05:31:19 10° N 05:32:43 19° NNW 05:32:43 19° NNW visible
30 Sep ? 05:34:15 10° N 05:35:32 18° NNW 05:35:32 18° NNW visible
